User: anonymous   Login
Location: Unspecified
(0.0000°N, 0.0000°E)
Time: 07:31:18
(UTC+01:00)
Language:

NOSS 2-2 (E) - Orbit

View from above orbital plane
View from above orbital plane
View from above satellite
View from above satellite

Ground track
Ground track

The orbit data is extracted from the following two-line orbital elements,

1 21809U 91076E   14350.77893944 0.00000650  00000-0  30440-3 0    05
2 21809  63.3680 294.3529 0669000  13.2049 346.7950 13.41011808    03
Epoch (UTC): 16 December 2014 18:41:40
Eccentricity: 0.0669000
inclination: 63.3680°
perigee height: 605 km
apogee height: 1606 km
right ascension of ascending node: 294.3529°
argument of perigee: 13.2049°
revolutions per day: 13.41011808
mean anomaly at epoch: 346.7950°
orbit number at epoch: 0

The dashed part of the orbit path shows where the satellite is in the earth's shadow,  

DLR